MESAT1

Last updated on Sun Jun 21 2026 00:03:20 GMT+0000 (Coordinated Universal Time)

1 60209U 24125G 26171.05066676 .00049535 00000+0 53419-3 0 9994 2 60209 97.2284 28.5983 0009832 192.9282 167.1727 15.63472773110010
UTC large
Height (km)
Speed (km/s)
/
Latitude / Longitude
Inclination (degrees)
Orbital Period (minutes)
Azimuth
Elevation
Range (km)
Doppler Factor

Next 0 passes for location: London (51.5072 / 0.1276)

No passes found over London.
MESAT1